Flight Track Log - Related Links

Times and Time Zones

All times are in EDT time to prevent confusion due to time zone crossing. See the XOJ793 flight status page for this flight to view local times or setup timezone preferences in your user account.

Time Position Orientation Groundspeed Altitude Reporting Facility
EDT Latitude Longitude Course Direction KTS MPH feet Rate Location/Type
Thu 09:41:25 38.6500 -121.5833 130° Southeast 202 232 2,900  Level Northern Cal TRACON
Thu 09:42:25 38.6167 -121.5333 130° Southeast 254 292 5,400 2,844 Climbing Northern Cal TRACON
Thu 09:43:59 38.5414 -121.4039 127° Southeast 287 330 10,200 3,019 Climbing Oakland Center
Thu 09:45:00 38.5017 -121.3128 119° Southeast 291 335 13,200 2,902 Climbing Oakland Center
Thu 09:46:01 38.4606 -121.2194 119° Southeast 299 344 16,100 2,557 Climbing Oakland Center
Thu 09:47:02 38.4236 -121.1342 119° Southeast 304 350 18,400 1,415 Climbing Oakland Center
Thu 09:48:04 38.3775 -121.0244 118° Southeast 344 396 19,000 878 Climbing Oakland Center
Thu 09:49:05 38.3128 -120.8750 119° Southeast 399 459 20,200 1,770 Climbing Oakland Center
Thu 09:50:06 38.2603 -120.7536 119° Southeast 398 458 22,600 2,066 Climbing Oakland Center
Thu 09:51:07 38.1900 -120.6453 130° Southeast 398 458 24,400 1,820 Climbing Oakland Center
Thu 09:52:08 38.0989 -120.5556 142° Southeast 409 471 26,300 1,574 Climbing Oakland Center
Thu 09:53:09 38.0183 -120.4389 131° Southeast 443 510 27,600 1,574 Climbing Oakland Center
Thu 09:54:10 37.9461 -120.3106 125° Southeast 448 516 29,500 2,016 Climbing Oakland Center
Thu 09:55:11 37.8492 -120.2244 145° Southeast 427 491 31,700 1,738 Climbing Oakland Center
Thu 09:57:13 37.6094 -120.1456 165° South 445 512 34,800 1,639 Climbing Oakland Center
Thu 09:58:14 37.4889 -120.1072 166° South 446 513 36,700 1,426 Climbing Oakland Center
Thu 09:59:15 37.3667 -120.0661 165° South 452 520 37,700 1,377 Climbing Oakland Center
Thu 10:00:16 37.2425 -120.0242 165° South 461 531 39,500 1,733 Climbing Oakland Center
Thu 10:02:15 36.9775 -119.9356 165° South 455 524 42,900 1,500 Climbing Los Angeles Center
Thu 10:03:20 36.8575 -119.8986 166° South 452 520 44,100 1,000 Climbing Oakland Center
Thu 10:04:21 36.7369 -119.8581 165° South 451 519 45,000 443 Climbing Oakland Center
Thu 10:05:22 36.6125 -119.8189 166° South 454 522 45,000  Level Oakland Center
Thu 10:06:23 36.4836 -119.7753 165° South 470 541 45,000  Level Oakland Center
Thu 10:07:24 36.3533 -119.7342 166° South 477 549 45,000  Level Oakland Center
Thu 10:08:25 36.2233 -119.6922 165° South 479 551 45,000  Level Oakland Center
Thu 10:10:30 35.9322 -119.6136 162° South 485 558 45,000 -96 Level Los Angeles Center
Thu 10:11:32 35.7967 -119.6211 183° South 486 559 44,700 -750 Descending Los Angeles Center
Thu 10:12:30 35.6619 -119.6261 182° South 485 558 43,500 -1,210 Descending Oakland Center
Thu 10:13:31 35.5283 -119.6286 181° South 481 554 42,300 -1,180 Descending Oakland Center
Thu 10:14:32 35.4014 -119.5689 159° South 486 559 41,100 -1,171 Descending Oakland Center
Thu 10:15:34 35.2758 -119.4961 155° Southeast 492 566 39,900 -1,246 Descending Oakland Center
Thu 10:16:42 35.1258 -119.4100 155° Southeast 492 566 38,400 -1,246 Descending Los Angeles Center
Thu 10:17:44 35.0008 -119.3369 154° Southeast 492 566 37,200 -1,548 Descending Los Angeles Center
Thu 10:18:46 34.8736 -119.2642 155° Southeast 498 573 35,200 -2,323 Descending Los Angeles Center
Thu 10:19:48 34.7481 -119.1922 155° Southeast 499 574 32,400 -2,758 Descending Los Angeles Center
Thu 10:20:50 34.6156 -119.1194 156° South 500 575 29,500 -2,758 Descending Los Angeles Center
Thu 10:21:52 34.4881 -119.0458 155° Southeast 506 582 26,700 -2,710 Descending Los Angeles Center
Thu 10:22:54 34.3603 -118.9744 155° Southeast 507 583 23,900 -2,419 Descending Los Angeles Center
Thu 10:24:58 34.1039 -118.8289 157° South 461 531 19,200 -2,452 Descending Los Angeles Center
Thu 10:26:00 33.9967 -118.7683 155° Southeast 425 489 16,300 -2,516 Descending Los Angeles Center
Thu 10:27:02 33.8931 -118.7117 156° South 387 445 14,000 -1,161 Descending Los Angeles Center
Thu 10:28:04 33.8081 -118.6814 164° South 355 409 13,900 -768 Descending Los Angeles Center
Thu 10:29:07 33.7269 -118.6528 164° South 305 351 12,400 -1,824 Descending Los Angeles Center
Thu 10:30:09 33.6394 -118.6053 156° South 297 342 10,100 -1,935 Descending Los Angeles Center
Thu 10:31:11 33.6106 -118.5175 112° Southeast 287 330 8,400 -1,887 Descending Los Angeles Center
Thu 10:32:13 33.5994 -118.4258 98° East 287 330 6,200 -1,694 Descending Los Angeles Center
Thu 10:33:15 33.6061 -118.3322 85° East 292 336 4,900 -629 Descending Los Angeles Center
Thu 10:34:17 33.6325 -118.2258 73° East 288 331 4,900  Level Los Angeles Center
Thu 10:35:19 33.6542 -118.1364 74° East 287 330 4,900  Level Los Angeles Center
Thu 10:36:21 33.6758 -118.0469 74° East 285 328 4,900  Level Los Angeles Center
Thu 10:37:23 33.7081 -117.9747 62° Northeast 259 298 4,900  Level Los Angeles Center
Thu 10:38:25 33.7486 -117.9269 44° Northeast 223 257 4,900 -270 Level Los Angeles Center
Thu 10:39:14 33.8000 -117.8833 35° Northeast 202 232 4,400 -675 Descending Southern California TRACON
Thu 10:41:14 33.8667 -117.8000 46° Northeast 198 228 3,000 -500 Descending Southern California TRACON
Thu 10:43:14 33.7833 -117.8000 180° South 154 177 2,400 -433 Descending Southern California TRACON
Thu 10:44:14 33.7500 -117.8167 203° Southwest 132 152 1,700 -700 Descending Southern California TRACON
Thu 10:48:00 33.6757 -117.8682 196° South  Level Estimated
Thu 10:55:00 33.6757 -117.8682 196° South  Level Estimated
Thu 10:56:00 33.6757 -117.8682 17° North  Level Estimated
Thu 10:57:00 33.6757 -117.8682 196° South  Level Estimated
Thu 10:58:00 33.6757 -117.8682 172° South  Level Estimated
Thu 10:59:00 33.6757 -117.8682 196° South  Level Estimated
Thu 11:00:00 33.6757 -117.8682 17° North  Level Estimated
Thu 11:01:00 33.6757 -117.8682 196° South  Level Estimated

Login

Don't have an account? Register now (free) for customized features, flight alerts, and more!